Soldotna, AK

4:56 AM AKST on December 08, 2019 (GMT -0900)
Soldotna

Weather History for PASX - October, 2019

Change the Weather History Date:

Thursday, October 31, 2019

  Actual Average Record
Temperature  
Mean Temperature 33 °F -  
Max Temperature 41 °F 34 °F 51 °F (2002)
Min Temperature 27 °F 19 °F -8 °F (1961)
Degree Days  
Heating Degree Days 32    
Moisture  
Dew Point 34 °F    
Average Humidity 94    
Maximum Humidity 97    
Minimum Humidity 89    
Precipitation  
Precipitation 0.09 in - - ()
Sea Level Pressure  
Sea Level Pressure 30.05 in    
Wind  
Wind Speed 5 mph (NE)    
Max Wind Speed 10 mph    
Max Gust Speed -    
Visibility 10 miles    
Events Rain    
Averages and records for this station are not official NWS values.
T = Trace of Precipitation, MM = Missing Value Source: NWS Daily Summary

Daily Weather History Graph

Daily Weather History Graph

Search for Another Location

Airport or City:

Astronomy

Oct. 31, 2019 Rise Set
Actual Time 9:25 AM AKDT 6:08 PM AKDT
Civil Twilight 8:40 AM AKDT 6:54 PM AKDT
Nautical Twilight 7:50 AM AKDT 7:44 PM AKDT
Astronomical Twilight 7:01 AM AKDT 8:32 PM AKDT
Moon 2:21 PM AKDT (10/31) 8:15 PM AKDT (10/31)
Length of Visible Light 10h 14m
Length of Day
8h 42m
Waxing Crescent, 17% of the Moon is Illuminated
Oct 31
Waxing Crescent
Nov 4
First Quarter
Nov 12
Full
Nov 19
Last Quarter
Nov 26
New

Hourly Weather History & Observations

Time (AKDT) Temp. Windchill Dew Point Humidity Pressure Visibility Wind Dir Wind Speed Gust Speed Precip Events Conditions
12:56 AM 28.9 °F 22.8 °F 28.0 °F 96% 30.20 in 10.0 mi ENE 5.8 mph - N/A   Scattered Clouds
1:56 AM 28.9 °F 25.2 °F 28.0 °F 96% 30.20 in 10.0 mi ENE 3.5 mph - N/A   Clear
2:56 AM 28.9 °F 25.2 °F 28.0 °F 96% 30.21 in 10.0 mi ENE 3.5 mph - N/A   Clear
3:56 AM 28.0 °F 24.2 °F 26.1 °F 92% 30.20 in 10.0 mi ENE 3.5 mph - N/A   Clear
4:56 AM 27.0 °F 21.6 °F 26.1 °F 96% 30.18 in 10.0 mi ENE 4.6 mph - N/A   Clear
5:56 AM 27.0 °F 23.0 °F 26.1 °F 96% 30.17 in 10.0 mi NE 3.5 mph - N/A   Clear
6:56 AM 28.9 °F 23.9 °F 28.0 °F 96% 30.14 in 10.0 mi ENE 4.6 mph - N/A   Overcast
7:56 AM 30.0 °F - 28.9 °F 96% 30.13 in 10.0 mi Calm Calm - N/A   Overcast
10:56 AM 32.0 °F - 30.9 °F 96% 30.11 in 10.0 mi Calm Calm - 0.00 in   Mostly Cloudy
11:56 AM 37.0 °F 33.3 °F 36.0 °F 96% 30.09 in 10.0 mi NE 4.6 mph - 0.01 in Rain Light Rain
12:56 PM 37.9 °F - 36.0 °F 93% 30.08 in 10.0 mi Calm Calm - 0.02 in Rain Light Rain
1:56 PM 39.0 °F 34.8 °F 37.0 °F 93% 30.05 in 10.0 mi NE 5.8 mph - 0.03 in Rain Light Rain
2:56 PM 39.9 °F 33.9 °F 39.0 °F 97% 30.01 in 10.0 mi NNE 9.2 mph - 0.03 in Rain Light Rain
3:56 PM 39.9 °F 33.4 °F 37.9 °F 93% 29.99 in 10.0 mi NNE 10.4 mph - 0.00 in   Overcast
4:56 PM 39.9 °F 35.1 °F 37.0 °F 89% 29.96 in 10.0 mi NE 6.9 mph - N/A   Overcast
5:26 PM 39.2 °F 34.2 °F 37.4 °F 93% 29.92 in 10.0 mi NE 6.9 mph - N/A   Overcast
5:42 PM 39.2 °F 33.6 °F 37.4 °F 93% 29.92 in 10.0 mi NNE 8.1 mph - N/A   Overcast
5:56 PM 39.0 °F 34.0 °F 37.0 °F 93% 29.95 in 10.0 mi NE 6.9 mph - N/A   Overcast
6:56 PM 39.0 °F 34.8 °F 36.0 °F 89% 29.94 in 10.0 mi NE 5.8 mph - N/A   Overcast
7:56 PM 37.9 °F 34.4 °F 36.0 °F 93% 29.94 in 10.0 mi North 4.6 mph - N/A   Clear
8:56 PM 39.0 °F 36.8 °F 37.0 °F 93% 29.94 in 10.0 mi North 3.5 mph - N/A   Mostly Cloudy
9:56 PM 39.0 °F - 37.0 °F 93% 29.94 in 10.0 mi Calm Calm - N/A   Overcast
10:56 PM 39.9 °F 37.8 °F 37.0 °F 89% 29.93 in 10.0 mi North 3.5 mph - N/A   Clear
11:56 PM 39.0 °F 36.8 °F 37.0 °F 93% 29.93 in 10.0 mi Variable 3.5 mph - 0.00 in Rain Light Rain